Weather History for KAMN - July, 2013

Change the Weather History Date:

Thursday, July 18, 2013

  Actual Average Record
Temperature  
Mean Temperature 82 °F -  
Max Temperature 94 °F 86 °F 94 °F (1974)
Min Temperature 71 °F 60 °F 44 °F (1998)
Cooling Degree Days 18    
Growing Degree Days 32 (Base 50)    
Moisture  
Dew Point 69 °F    
Average Humidity 65    
Maximum Humidity 93    
Minimum Humidity 37    
Precipitation  
Precipitation 0.00 in - - ()
Sea Level Pressure  
Sea Level Pressure 30.07 in    
Wind  
Wind Speed 4 mph (SW)    
Max Wind Speed 14 mph    
Max Gust Speed 20 mph    
Visibility 10 miles    
Events      
Averages and records for this station are not official NWS values.
T = Trace of Precipitation, MM = Missing Value Source: NWS Daily Summary

Daily Weather History Graph

Daily Weather History Graph

Search for Another Location

Airport or City:

Trip Planner

Search our weather history database for the weather conditions in past years. The results will help you decide how hot, cold, wet, or windy it might be!

Date:

Astronomy

Jul. 18, 2013 Rise Set
Actual Time 6:15 AM EDT 9:14 PM EDT
Civil Twilight 5:40 AM EDT 9:48 PM EDT
Nautical Twilight 4:57 AM EDT 10:31 PM EDT
Astronomical Twilight 4:06 AM EDT 11:22 PM EDT
Moon 5:09 PM EDT (7/18) 2:06 AM EDT (7/18)
Length of Visible Light 16h 07m
Length of Day
14h 59m
Waxing Gibbous, 77% of the Moon is Illuminated
Jul 18
Waxing Gibbous
Jul 22
Full
Jul 29
Last Quarter
Aug 6
New
Aug 14
First Quarter

Hourly Weather History & Observations

Time (EDT) Temp. Heat Index Dew Point Humidity Pressure Visibility Wind Dir Wind Speed Gust Speed Precip Events Conditions
12:15 AM 75.9 °F - 71.2 °F 85% 30.18 in 10.0 mi SW 3.5 mph - N/A   Clear
12:34 AM 75.9 °F - 71.4 °F 86% 30.18 in 10.0 mi SW 3.5 mph - N/A   Clear
12:54 AM 75.2 °F - 71.1 °F 87% 30.18 in 10.0 mi Calm Calm - N/A   Clear
1:14 AM 74.5 °F - 70.2 °F 86% 30.18 in 10.0 mi Calm Calm - N/A   Clear
1:34 AM 74.3 °F - 71.1 °F 90% 30.18 in 10.0 mi Calm Calm - N/A   Clear
1:54 AM 73.8 °F - 70.9 °F 91% 30.17 in 10.0 mi Calm Calm - N/A   Clear
2:14 AM 75.2 °F - 71.1 °F 87% 30.17 in 10.0 mi WSW 3.5 mph - N/A   Clear
2:34 AM 74.8 °F - 70.9 °F 87% 30.16 in 10.0 mi Calm Calm - N/A   Clear
2:54 AM 74.5 °F - 70.7 °F 88% 30.15 in 10.0 mi Calm Calm - N/A   Clear
3:14 AM 73.2 °F - 70.5 °F 91% 30.15 in 10.0 mi Calm Calm - N/A   Clear
3:34 AM 71.8 °F - 69.3 °F 92% 30.14 in 10.0 mi Calm Calm - N/A   Clear
3:54 AM 74.1 °F - 70.9 °F 90% 30.14 in 10.0 mi WSW 3.5 mph - N/A   Clear
4:14 AM 74.8 °F - 70.9 °F 87% 30.14 in 10.0 mi SW 3.5 mph - N/A   Clear
4:34 AM 74.5 °F - 70.7 °F 88% 30.14 in 10.0 mi SW 3.5 mph - N/A   Clear
4:54 AM 74.3 °F - 70.2 °F 87% 30.14 in 10.0 mi Calm Calm - N/A   Clear
5:14 AM 72.7 °F - 69.8 °F 91% 30.14 in 10.0 mi Calm Calm - N/A   Clear
5:34 AM 72.3 °F - 69.3 °F 90% 30.13 in 7.0 mi Calm Calm - N/A   Clear
5:54 AM 73.0 °F - 70.3 °F 91% 30.13 in 10.0 mi Calm Calm - N/A   Clear
6:14 AM 72.1 °F - 69.8 °F 92% 30.14 in 7.0 mi Calm Calm - N/A   Clear
6:34 AM 72.5 °F - 70.3 °F 93% 30.14 in 5.0 mi Calm Calm - N/A   Clear
6:54 AM 72.7 °F - 70.5 °F 93% 30.14 in 7.0 mi Calm Calm - N/A   Clear
7:14 AM 74.5 °F - 71.6 °F 91% 30.14 in 7.0 mi Calm Calm - N/A   Clear
7:34 AM 76.1 °F - 72.1 °F 87% 30.14 in 7.0 mi Calm Calm - N/A   Clear
7:54 AM 77.4 °F - 72.5 °F 85% 30.14 in 10.0 mi WSW 3.5 mph - N/A   Clear
8:14 AM 78.8 °F - 72.7 °F 81% 30.14 in 10.0 mi Calm Calm - N/A   Clear
8:34 AM 80.8 °F 85.6 °F 73.2 °F 78% 30.13 in 10.0 mi WSW 4.6 mph - N/A   Clear
8:54 AM 81.9 °F 87.3 °F 73.2 °F 75% 30.13 in 10.0 mi WSW 5.8 mph - N/A   Clear
9:14 AM 82.9 °F 89.1 °F 73.6 °F 73% 30.13 in 10.0 mi West 4.6 mph - N/A   Clear
9:34 AM 84.4 °F 91.7 °F 74.1 °F 71% 30.12 in 10.0 mi WSW 5.8 mph - N/A   Clear
9:54 AM 86.0 °F 94.6 °F 74.7 °F 69% 30.12 in 10.0 mi SW 5.8 mph - N/A   Clear
10:14 AM 87.3 °F 96.3 °F 74.8 °F 66% 30.12 in 10.0 mi West 4.6 mph - N/A   Clear
10:35 AM 87.4 °F 95.8 °F 74.1 °F 64% 30.12 in 10.0 mi SW 5.8 mph - N/A   Clear
10:54 AM 88.9 °F 95.6 °F 72.0 °F 57% 30.12 in 10.0 mi SW 3.5 mph - N/A   Clear
11:14 AM 89.8 °F 96.5 °F 71.4 °F 55% 30.12 in 10.0 mi West 6.9 mph - N/A   Clear
11:34 AM 90.3 °F 96.2 °F 70.7 °F 52% 30.12 in 10.0 mi South 4.6 mph - N/A   Clear
11:55 AM 91.9 °F 96.4 °F 68.2 °F 46% 30.11 in 10.0 mi West 4.6 mph - N/A   Scattered Clouds
12:14 PM 91.9 °F 95.4 °F 67.1 °F 44% 30.11 in 10.0 mi WSW 6.9 mph - N/A   Scattered Clouds
12:34 PM 90.9 °F 94.8 °F 68.0 °F 47% 30.10 in 10.0 mi WSW 5.8 mph - N/A   Scattered Clouds
12:54 PM 92.8 °F 97.1 °F 68.2 °F 44% 30.10 in 10.0 mi SW 8.1 mph - N/A   Mostly Cloudy
1:14 PM 93.2 °F 97.2 °F 67.6 °F 43% 30.09 in 10.0 mi SW 10.4 mph - N/A   Scattered Clouds
1:34 PM 93.4 °F 96.1 °F 65.8 °F 40% 30.08 in 10.0 mi SW 6.9 mph - N/A   Scattered Clouds
1:54 PM 93.9 °F 97.0 °F 66.2 °F 40% 30.07 in 10.0 mi SW 8.1 mph - N/A   Scattered Clouds
2:15 PM 93.2 °F 95.8 °F 65.7 °F 40% 30.06 in 10.0 mi WSW 6.9 mph - N/A   Scattered Clouds
2:34 PM 93.6 °F 97.4 °F 67.1 °F 42% 30.06 in 10.0 mi SSW 11.5 mph 16.1 mph N/A   Mostly Cloudy
2:55 PM 94.3 °F 97.2 °F 65.7 °F 39% 30.05 in 10.0 mi SW 8.1 mph 16.1 mph N/A   Scattered Clouds
3:14 PM 94.3 °F 97.2 °F 65.5 °F 39% 30.05 in 10.0 mi SSW 9.2 mph - N/A   Scattered Clouds
3:34 PM 94.8 °F 97.1 °F 64.9 °F 37% 30.04 in 10.0 mi WSW 11.5 mph - N/A   Scattered Clouds
3:54 PM 94.1 °F 97.9 °F 67.3 °F 41% 30.03 in 10.0 mi WSW 11.5 mph 18.4 mph N/A   Scattered Clouds
4:15 PM 94.1 °F 97.9 °F 66.9 °F 41% 30.02 in 10.0 mi SW 12.7 mph 18.4 mph N/A   Scattered Clouds
4:34 PM 94.1 °F 98.4 °F 68.0 °F 42% 30.02 in 10.0 mi SW 13.8 mph 17.3 mph N/A   Scattered Clouds
4:54 PM 93.7 °F 97.7 °F 67.3 °F 42% 30.01 in 10.0 mi WSW 10.4 mph 19.6 mph N/A   Scattered Clouds
5:14 PM 93.7 °F 97.2 °F 66.6 °F 41% 30.01 in 10.0 mi WSW 12.7 mph 18.4 mph N/A   Scattered Clouds
5:34 PM 93.7 °F 96.2 °F 65.1 °F 39% 29.99 in 10.0 mi West 12.7 mph 18.4 mph N/A   Scattered Clouds
5:54 PM 92.8 °F 95.6 °F 65.7 °F 41% 29.99 in 10.0 mi WSW 11.5 mph 19.6 mph N/A   Clear
6:14 PM 92.5 °F 95.0 °F 65.8 °F 41% 29.98 in 10.0 mi WSW 12.7 mph 18.4 mph N/A   Clear
6:34 PM 91.6 °F 94.8 °F 66.7 °F 44% 29.97 in 10.0 mi WSW 10.4 mph 17.3 mph N/A   Clear
6:54 PM 91.4 °F 94.9 °F 67.3 °F 45% 29.96 in 10.0 mi WSW 10.4 mph 18.4 mph N/A   Clear
7:14 PM 90.5 °F 93.8 °F 67.1 °F 46% 29.97 in 10.0 mi WSW 11.5 mph - N/A   Clear
7:35 PM 89.8 °F 93.3 °F 67.8 °F 48% 29.97 in 10.0 mi SW 6.9 mph 17.3 mph N/A   Clear
7:54 PM 89.1 °F 92.5 °F 67.6 °F 49% 29.96 in 10.0 mi WSW 9.2 mph - N/A   Clear
8:14 PM 88.0 °F 91.0 °F 67.3 °F 50% 29.95 in 10.0 mi WSW 6.9 mph - N/A   Clear
8:35 PM 86.7 °F 89.6 °F 67.3 °F 52% 29.95 in 10.0 mi SW 8.1 mph - N/A   Clear
8:54 PM 85.6 °F 88.8 °F 67.6 °F 55% 29.94 in 10.0 mi SSW 6.9 mph - N/A   Clear
9:15 PM 84.0 °F 87.3 °F 68.2 °F 59% 29.94 in 10.0 mi SSW 5.8 mph - N/A   Clear
9:34 PM 82.6 °F 86.1 °F 69.1 °F 64% 29.94 in 10.0 mi SSW 5.8 mph - N/A   Clear
9:54 PM 82.8 °F 86.0 °F 68.5 °F 62% 29.94 in 10.0 mi SSW 6.9 mph - N/A   Clear
10:14 PM 82.4 °F 85.6 °F 68.5 °F 63% 29.95 in 10.0 mi SSW 4.6 mph - N/A   Clear
10:34 PM 81.0 °F 84.1 °F 69.1 °F 67% 29.95 in 10.0 mi SSW 5.8 mph - N/A   Clear
10:55 PM 81.5 °F 84.8 °F 69.1 °F 66% 29.95 in 10.0 mi SSW 5.8 mph - N/A   Clear
11:14 PM 81.3 °F 84.6 °F 69.4 °F 67% 29.95 in 10.0 mi SSW 4.6 mph - N/A   Clear
11:35 PM 80.8 °F 84.2 °F 70.0 °F 70% 29.95 in 10.0 mi SSW 6.9 mph - N/A   Clear
11:54 PM 80.2 °F 83.7 °F 70.7 °F 73% 29.94 in 10.0 mi SSW 6.9 mph - N/A   Clear